{"data":{"norad_id":41771,"epoch":"2026-09-19T18:47:52.152000Z","epoch_age_seconds":76183,"freshness":"FRESH","line1":"1 41771U 16058B   26262.78324250  .00013165  00000+0  22574-3 0  9997","line2":"2 41771  96.9170 280.7606 0000651 172.4662 187.6601 15.51309509560124","mean_motion":15.51309509,"eccentricity":6.51e-5,"inclination_deg":96.917,"raan_deg":280.7606,"arg_perigee_deg":172.4662,"mean_anomaly_deg":187.6601,"bstar":0.00022574,"rev_number":56012,"period_min":92.824803280439,"perigee_km":412.45959643984,"apogee_km":413.34378967768,"semimajor_km":6791.0386930588,"source":"CELESTRAK","updated_at":"2026-09-20T09:00:34.707211Z"}}